User: anonymous   Login
Location: Bothwell
(42.3833°S, 147.0000°E)
Time: 19:06:07
(UTC+11:00)
Language:

JY1SAT - Orbit

View from above orbital plane
View from above orbital plane
View from above satellite
View from above satellite

Ground track
Ground track

The orbit data is extracted from the following two-line orbital elements,

1 43803U 18099AX  23275.74151623  .00009447  00000-0  71918-3 0  9996
2 43803  97.5576 335.6341 0012795 100.4459 259.8209 15.02233940263837
Epoch (UTC): 02 October 2023 17:47:47
Eccentricity: 0.0012795
inclination: 97.5576°
perigee height: 551 km
apogee height: 569 km
right ascension of ascending node: 335.6341°
argument of perigee: 100.4459°
revolutions per day: 15.02233940
mean anomaly at epoch: 259.8209°
orbit number at epoch: 26383

The dashed part of the orbit path shows where the satellite is in the earth's shadow,  

DLR